EST,Max TemperatureF,Mean TemperatureF,Min TemperatureF,Max Dew PointF,MeanDew PointF,Min DewpointF,Max Humidity, Mean Humidity, Min Humidity, Max Sea Level PressureIn, Mean Sea Level PressureIn, Min Sea Level PressureIn, Max VisibilityMiles, Mean VisibilityMiles, Min VisibilityMiles, Max Wind SpeedMPH, Mean Wind SpeedMPH, Max Gust SpeedMPH,PrecipitationIn, CloudCover, Events, WindDirDegrees
2012-1-1,67,48,28,48,31,21,100,68,36,30.14,30.06,29.89,10,9,2,24,8,32,0.00,1,,307
2012-1-2,39,29,19,20,14,7,81,54,27,30.12,30.04,29.93,10,7,1,32,17,38,T,4,Snow,336
2012-1-3,26,22,17,12,8,5,67,55,42,30.34,30.23,30.07,10,9,2,31,15,40,T,3,Snow,336
2012-1-4,46,30,13,18,9,2,80,48,16,30.36,30.23,30.09,10,10,10,12,3,14,0.00,0,,318
2012-1-5,53,41,28,28,23,17,75,50,24,30.16,30.10,30.04,10,10,10,20,7,24,0.00,0,,339
2012-1-6,64,45,25,27,23,21,88,54,20,30.14,30.09,30.00,10,10,10,14,2,16,0.00,0,,307
2012-1-7,62,45,28,48,44,28,100,78,55,30.11,30.06,30.00,10,7,0,13,1,15,0.08,6,Fog-Rain,345
2012-1-8,51,45,38,48,43,37,100,97,93,30.24,30.17,30.09,10,2,0,7,2,10,0.04,7,Fog-Rain,205
2012-1-9,50,47,44,45,45,45,100,97,93,30.19,30.17,30.15,4,3,1,12,3,28,0.15,8,,167
2012-1-10,53,48,42,48,46,45,89,80,71,30.11,30.01,29.94,10,9,2,15,5,30,0.01,7,Rain,154
2012-1-11,54,48,42,52,47,40,100,89,77,29.94,29.73,29.48,10,6,1,16,6,20,1.56,7,Rain-Thunderstorm,178
2012-1-12,55,41,26,43,36,10,100,77,53,29.71,29.61,29.52,10,5,0,24,8,45,0.02,4,Fog-Rain,239
2012-1-13,30,27,23,16,13,11,68,59,50,30.09,29.85,29.72,10,10,10,20,12,33,0.00,0,,326
2012-1-14,42,32,22,14,13,10,68,63,57,30.14,30.12,30.10,10,10,10,16,6,23,T,0,,353
2012-1-15,44,36,27,25,23,21,72,60,48,30.45,30.32,30.19,10,10,10,21,9,28,0.00,4,,353
2012-1-16,46,35,24,28,24,19,78,58,37,30.46,30.40,30.33,10,10,10,23,12,31,0.00,6,,166
2012-1-17,59,51,43,51,46,28,100,75,49,30.17,30.01,29.89,10,9,6,23,13,32,0.35,6,Rain,198
2012-1-18,49,39,29,46,26,20,93,71,48,30.11,30.03,29.93,10,10,8,28,16,39,0.03,2,Rain,346
2012-1-19,43,33,22,25,22,20,96,70,43,30.18,30.10,30.04,10,10,8,15,5,18,0.00,0,,147
2012-1-20,56,42,28,41,35,24,93,72,51,30.13,30.06,30.01,10,8,3,13,5,21,0.10,7,Rain,165
2012-1-21,54,48,41,52,46,39,100,92,83,30.10,29.94,29.85,10,8,2,17,4,25,0.33,7,Rain,142
2012-1-22,47,42,37,45,40,37,100,91,82,30.26,30.20,30.09,10,6,0,13,8,20,0.01,8,Fog-Rain,169
2012-1-23,50,43,35,48,40,34,100,96,92,30.20,30.07,29.97,10,6,0,20,6,24,0.76,7,Fog-Rain,167
2012-1-24,59,48,36,43,38,26,100,65,30,30.28,30.12,30.03,10,6,0,18,9,23,0.00,2,Fog,344
2012-1-25,62,46,29,37,32,28,100,65,29,30.33,30.23,30.16,10,10,2,14,4,18,0.00,3,,153
2012-1-26,61,56,50,56,51,39,93,76,59,30.14,29.91,29.64,10,8,2,28,7,36,0.40,8,Rain,168
2012-1-27,60,48,36,55,43,32,83,70,56,30.04,29.78,29.59,10,10,10,28,12,39,0.01,4,Rain,331
2012-1-28,55,42,29,36,29,11,100,72,44,30.25,30.12,30.03,10,10,10,25,8,35,0.00,0,,351
2012-1-29,50,37,24,17,11,2,68,41,14,30.37,30.30,30.24,10,10,10,17,6,22,0.00,0,,322
2012-1-30,57,41,25,24,19,12,75,48,21,30.43,30.35,30.28,10,10,10,13,2,16,0.00,0,,181
2012-1-31,64,46,27,28,25,23,92,59,25,30.40,30.32,30.24,10,10,10,18,5,25,0.00,1,,183